2017-008AF

Last updated on Tue Feb 28 2017 00:15:03 GMT+0000 (Coordinated Universal Time)

1 41977U 17008AF 17058.76558492 .00001592 00000-0 73709-4 0 9998 2 41977 97.5106 120.3724 0007544 208.4775 151.6041 15.21577925 1890
UTC large
Height (km)
Speed (km/s)
/
Latitude / Longitude
Inclination (degrees)
Orbital Period (minutes)
Azimuth
Elevation
Range (km)
Doppler Factor

Next 0 passes for location: London (51.5072 / 0.1276)

Sorry there are no passes over London.